CARBSAR

导读

CARBSAT(CarbSar)是由英国萨里卫星技术公司与牛津空间系统公司联合研发的伞状合成孔径雷达卫星,原计划于2024年发射,现定于2026年1月11日发射,发射国家暂未公布。该卫星采用钨丝编织折叠天线,入轨后展开为3米伞状结构,结合X波段SAR技术,可穿透云层实现全天候高分辨率地球观测,重量轻、部署便捷,抗空间环境与辐射能力优异。

基本信息
目录编号:
67397
目录名称:
CARBSAR
国际标识:
2026-004AL
轨道中心:
EARTH
卫星名称:
CARBSAR
卫星全名:
CARBSAR
卫星状态:
在轨 (已飞行237 天)
发射日期:
2026-01-11 UTC
国别 :
英国 (GB)
星等 :
--
轨道信息
数据来源 国际轨道数据
星历时间: 2026-09-04T18:29:02+0800
1天前
查看轨道信息
半长轴: 6882.795km
偏心率: 0.000732
轨道倾角: 97.460°
近地点辐角 67.618°
升交点赤经 245.694°
平近点角 292.583°
近地点: 499.619km
远地点: 509.697km
周期: 94.712分钟
每日圈数: 15.20392
详细信息
使用方式:
暂无
2D轨道图
3D轨道图
轨道高度分析图
轨道倾角分析图
轨道综合分析图
查看轨道综合分析图
交会数据列表
事件ID 空间交会对象 最接近时刻(TCA) 交会距离 交会风险概率(CRP) 交会风险指数(CRI) 操作
CDM_260905-213606-667806-739724
CARBSAR (67397)
2026-09-05T
21:36:12+0000
1.127 km
极远距离
1.270537E-5 中风险 0.57
CDM_260905-222306-667806-739724
CARBSAR (67397)
2026-09-05T
22:23:36+0000
1.323 km
极远距离
7.280871E-6 低风险 0.52
CDM_260906-160405-268606-739721
CARBSAR (67397)
2026-09-06T
16:04:39+0000
2.546 km
极远距离
1.685067E-6 低风险 0.4
CDM_260906-151705-268606-739721
CARBSAR (67397)
2026-09-06T
15:17:14+0000
2.695 km
极远距离
1.536885E-6 低风险 0.39